Jackson, MI

12:55 AM EDT on October 24, 2019 (GMT -0400)
Jackson County-Reynolds

Weather History for KJXN - July, 2019

Change the Weather History Date:

Saturday, July 13, 2019

  Actual Average Record
Temperature  
Mean Temperature 74 °F 71 °F  
Max Temperature 88 °F 82 °F 95 °F (1973)
Min Temperature 59 °F 60 °F 46 °F (2001)
Degree Days  
Heating Degree Days 0 0  
Month to date heating degree days 0 1  
Since 1 June heating degree days 58 56  
Since 1 July heating degree days 0 1  
Cooling Degree Days 9 7  
Month to date cooling degree days 128 89  
Year to date cooling degree days 231 252  
Since 1 June cooling degree days 221 215  
Growing Degree Days 24 (Base 50)    
Moisture  
Dew Point 64 °F    
Average Humidity 77    
Maximum Humidity 100    
Minimum Humidity 53    
Precipitation  
Precipitation 0.00 in 0.11 in 1.63 in (1963)
Month to date precipitation 1.36 1.41  
Year to date precipitation 18.08 15.28  
Sea Level Pressure  
Sea Level Pressure 29.97 in    
Wind  
Wind Speed 8 mph (WSW)    
Max Wind Speed 20 mph    
Max Gust Speed 30 mph    
Visibility 10 miles    
Events      
T = Trace of Precipitation, MM = Missing Value Source: NWS Daily Summary

Daily Weather History Graph

Daily Weather History Graph

Search for Another Location

Airport or City:

Astronomy

Jul. 13, 2019 Rise Set
Actual Time 6:12 AM EDT 9:13 PM EDT
Civil Twilight 5:39 AM EDT 9:47 PM EDT
Nautical Twilight 4:56 AM EDT 10:30 PM EDT
Astronomical Twilight 4:05 AM EDT 11:20 PM EDT
Moon 6:35 PM EDT (7/13) 3:33 AM EDT (7/13)
Length of Visible Light 16h 08m
Length of Day
15h 00m
Waxing Gibbous, 90% of the Moon is Illuminated
Jul 13
Waxing Gibbous
Jul 16
Full
Jul 24
Last Quarter
Jul 31
New
Aug 7
First Quarter

Hourly Weather History & Observations

Time (EDT) Temp. Heat Index Dew Point Humidity Pressure Visibility Wind Dir Wind Speed Gust Speed Precip Events Conditions
12:56 AM 61.0 °F - 60.1 °F 97% 29.96 in 10.0 mi Calm Calm - N/A   Clear
1:56 AM 61.0 °F - 59.0 °F 93% 29.97 in 10.0 mi SW 3.5 mph - N/A   Clear
2:56 AM 61.0 °F - 59.0 °F 93% 29.95 in 10.0 mi Calm Calm - N/A   Clear
3:56 AM 60.1 °F - 57.9 °F 93% 29.95 in 10.0 mi SW 4.6 mph - N/A   Clear
4:56 AM 60.1 °F - 57.0 °F 90% 29.94 in 10.0 mi SW 3.5 mph - N/A   Clear
5:56 AM 61.0 °F - 57.9 °F 90% 29.94 in 10.0 mi Calm Calm - N/A   Clear
6:56 AM 62.1 °F - 59.0 °F 90% 29.96 in 10.0 mi SW 3.5 mph - N/A   Clear
7:56 AM 68.0 °F - 62.1 °F 81% 29.96 in 10.0 mi SW 5.8 mph - N/A   Clear
8:56 AM 73.0 °F - 64.0 °F 73% 29.97 in 10.0 mi SW 6.9 mph - N/A   Clear
9:56 AM 78.1 °F - 64.9 °F 64% 29.97 in 10.0 mi SW 8.1 mph - N/A   Clear
10:56 AM 81.0 °F 83.0 °F 66.0 °F 60% 29.97 in 10.0 mi SW 11.5 mph - N/A   Clear
11:56 AM 82.9 °F 85.0 °F 66.0 °F 56% 29.97 in 10.0 mi SW 16.1 mph 24.2 mph N/A   Scattered Clouds
12:56 PM 84.9 °F 88.2 °F 68.0 °F 57% 29.96 in 10.0 mi SW 16.1 mph 24.2 mph N/A   Partly Cloudy
1:56 PM 84.9 °F 88.8 °F 69.1 °F 59% 29.96 in 10.0 mi WSW 10.4 mph - N/A   Mostly Cloudy
2:56 PM 87.1 °F 92.0 °F 70.0 °F 57% 29.96 in 10.0 mi SW 16.1 mph 23.0 mph N/A   Scattered Clouds
3:56 PM 86.0 °F 90.7 °F 70.0 °F 59% 29.97 in 10.0 mi SW 15.0 mph 29.9 mph N/A   Mostly Cloudy
4:56 PM 88.0 °F 92.1 °F 69.1 °F 53% 29.96 in 10.0 mi West 9.2 mph 19.6 mph N/A   Clear
5:56 PM 87.1 °F 90.6 °F 68.0 °F 53% 29.95 in 10.0 mi WSW 13.8 mph 20.7 mph N/A   Clear
6:56 PM 86.0 °F 89.4 °F 68.0 °F 55% 29.95 in 10.0 mi West 10.4 mph - N/A   Clear
7:56 PM 84.0 °F 87.0 °F 68.0 °F 58% 29.96 in 10.0 mi West 6.9 mph - N/A   Clear
8:56 PM 80.1 °F 82.7 °F 68.0 °F 67% 29.98 in 10.0 mi West 5.8 mph - N/A   Clear
9:56 PM 78.1 °F - 68.0 °F 71% 30.00 in 10.0 mi West 3.5 mph - N/A   Clear
10:56 PM 77.0 °F - 66.0 °F 69% 30.02 in 10.0 mi NW 5.8 mph - N/A   Clear
11:56 PM 75.0 °F - 57.9 °F 55% 30.05 in 10.0 mi North 4.6 mph - N/A   Clear